Torna al catalogo

COSMOS 2251 DEB

AttivoLEO
NORAD 34576·DEBRIS·🇷🇺 Russia

Lanciato Jun 16, 1993 da Plesetsk Cosmodrome

Loading…

Prossimi Passaggi (prossime 24 ore)

TLE

AggiornatoSource: Space-Track

Epoca: Sep 14, 2026, 09:16 UTC

1 34576U 93036VN  26257.38663898  .00001534  00000-0  34782-3 0  9999
2 34576  74.0346 335.2245 0007470  26.6557  93.6841 14.56947163924792

Traccia COSMOS 2251 DEB in tempo reale con AllMySat

Download on the App Store